Orange, MA

4:09 PM EST on December 11, 2019 (GMT -0500)
Orange Municipal

Weather History for KORE - October, 2019

Change the Weather History Date:

Tuesday, October 8, 2019

  Actual Average Record
Temperature  
Mean Temperature 55 °F -  
Max Temperature 64 °F 61 °F 78 °F (2011)
Min Temperature 46 °F 37 °F 26 °F (1999)
Degree Days  
Heating Degree Days 10    
Growing Degree Days 5 (Base 50)    
Moisture  
Dew Point 49 °F    
Average Humidity 84    
Maximum Humidity 94    
Minimum Humidity 48    
Precipitation  
Precipitation 0.16 in - - ()
Sea Level Pressure  
Sea Level Pressure 30.27 in    
Wind  
Wind Speed 2 mph ()    
Max Wind Speed 10 mph    
Max Gust Speed -    
Visibility 6.9 miles    
Events Rain    
Averages and records for this station are not official NWS values.
T = Trace of Precipitation, MM = Missing Value Source: Averaged Metar Reports

Daily Weather History Graph

Daily Weather History Graph

Search for Another Location

Airport or City:

Astronomy

Oct. 08, 2019 Rise Set
Actual Time 6:53 AM EDT 6:18 PM EDT
Civil Twilight 6:25 AM EDT 6:47 PM EDT
Nautical Twilight 5:53 AM EDT 7:19 PM EDT
Astronomical Twilight 5:20 AM EDT 7:52 PM EDT
Moon 4:23 PM EDT (10/8) 1:31 AM EDT (10/8)
Length of Visible Light 12h 21m
Length of Day
11h 25m
Waxing Gibbous, 77% of the Moon is Illuminated
Oct 8
Waxing Gibbous
Oct 13
Full
Oct 21
Last Quarter
Oct 27
New
Nov 4
First Quarter

Hourly Weather History & Observations

Time (EDT) Temp. Dew Point Humidity Pressure Visibility Wind Dir Wind Speed Gust Speed Precip Events Conditions
12:52 AM 57.0 °F 54.0 °F 89% 30.22 in 10.0 mi Calm Calm - 0.01 in Rain Light Rain
1:52 AM 55.9 °F 53.1 °F 90% 30.22 in 9.0 mi WSW 4.6 mph - 0.05 in Rain Light Rain
2:52 AM 54.0 °F 52.0 °F 93% 30.22 in 10.0 mi Calm Calm - 0.05 in Rain Light Rain
3:52 AM 54.0 °F 52.0 °F 93% 30.22 in 9.0 mi Calm Calm - 0.04 in Rain Light Rain
4:52 AM 54.0 °F 52.0 °F 93% 30.23 in 10.0 mi Calm Calm - 0.01 in   Mostly Cloudy
5:49 AM 53.6 °F 51.8 °F 94% 30.24 in 10.0 mi Calm Calm - 0.00 in   Scattered Clouds
5:52 AM 54.0 °F 51.1 °F 90% 30.25 in 10.0 mi Calm Calm - 0.00 in   Mostly Cloudy
6:29 AM 53.1 °F 51.1 °F 93% 30.25 in 1.8 mi Calm Calm - N/A   Mostly Cloudy
6:33 AM 53.1 °F 51.1 °F 93% 30.25 in 1.0 mi NW 3.5 mph - N/A   Mist
6:43 AM 53.1 °F 51.1 °F 93% 30.25 in 0.8 mi Calm Calm - N/A   Mist
6:52 AM 53.1 °F 51.1 °F 93% 30.26 in 1.2 mi Calm Calm - N/A   Mostly Cloudy
7:03 AM 53.1 °F 51.1 °F 93% 30.26 in 0.8 mi Calm Calm - N/A   Mist
7:31 AM 53.1 °F 51.1 °F 93% 30.27 in 2.0 mi NW 4.6 mph - N/A   Mostly Cloudy
7:33 AM 53.1 °F 51.1 °F 93% 30.27 in 4.0 mi NW 4.6 mph - N/A   Scattered Clouds
7:52 AM 53.1 °F 51.1 °F 93% 30.28 in 10.0 mi Calm Calm - N/A   Clear
8:52 AM 54.0 °F 51.1 °F 90% 30.29 in 10.0 mi Calm Calm - N/A   Clear
9:52 AM 57.0 °F 52.0 °F 83% 30.30 in 10.0 mi North 4.6 mph - N/A   Clear
10:52 AM 59.0 °F 48.9 °F 69% 30.30 in 10.0 mi North 9.2 mph - N/A   Clear
11:52 AM 60.1 °F 46.9 °F 62% 30.30 in 10.0 mi NNE 8.1 mph - N/A   Clear
12:52 PM 62.1 °F 46.0 °F 56% 30.28 in 10.0 mi North 10.4 mph - N/A   Clear
1:52 PM 63.0 °F 46.0 °F 54% 30.27 in 10.0 mi NNW 10.4 mph - N/A   Clear
2:52 PM 64.0 °F 44.1 °F 48% 30.27 in 10.0 mi North 10.4 mph - N/A   Clear
3:52 PM 63.0 °F 44.1 °F 50% 30.27 in 10.0 mi North 9.2 mph - N/A   Clear
4:52 PM 62.1 °F 46.0 °F 56% 30.26 in 10.0 mi North 4.6 mph - N/A   Clear
5:52 PM 57.9 °F 51.1 °F 78% 30.28 in 10.0 mi Calm Calm - N/A   Clear
6:52 PM 54.0 °F 50.0 °F 86% 30.29 in 10.0 mi Calm Calm - N/A   Clear
7:52 PM 52.0 °F 48.9 °F 89% 30.30 in 10.0 mi Calm Calm - N/A   Clear
8:38 PM 50.0 °F 46.9 °F 89% 30.29 in 1.8 mi Calm Calm - N/A   Clear
8:48 PM 50.0 °F 46.4 °F 87% 30.29 in 3.0 mi Calm Calm - N/A   Clear
8:52 PM 50.0 °F 46.9 °F 89% 30.30 in 6.0 mi Calm Calm - N/A   Clear
8:59 PM 48.9 °F 46.0 °F 90% 30.29 in 1.8 mi Calm Calm - N/A   Clear
9:01 PM 48.0 °F 46.0 °F 93% 30.29 in 1.0 mi Calm Calm - N/A   Clear
9:11 PM 48.9 °F 46.0 °F 90% 30.29 in 1.5 mi Calm Calm - N/A   Clear
9:22 PM 48.9 °F 46.9 °F 93% 30.30 in 3.0 mi Calm Calm - N/A   Clear
9:52 PM 46.9 °F 45.0 °F 93% 30.32 in 10.0 mi SW 3.5 mph - N/A   Clear
10:52 PM 48.0 °F 45.0 °F 89% 30.33 in 10.0 mi Calm Calm - N/A   Clear
11:52 PM 46.0 °F 44.1 °F 93% 30.32 in 6.0 mi Calm Calm - N/A   Clear